| time (UTC) | temp F | wind direction | speed MPH | gust MPH | rain 1hr in | rain 24hr in | rain mn in | humidity % | barometer mb |
| 20260508133100 | 56 | 262 | 3.0 | 11.0 | 0.00 | 0.02 | 0.00 | 63 | 1011.5 |
| 20260508131600 | 54 | 315 | 2.0 | 6.0 | 0.00 | 0.02 | 0.00 | 66 | 1011.4 |
| 20260508130053 | 53 | 269 | 2.0 | 10.0 | 0.00 | 0.02 | 0.00 | 69 | 1011.7 |
| 20260508124550 | 52 | 277 | 1.0 | 6.0 | 0.00 | 0.04 | 0.00 | 70 | 1011.7 |
| 20260508123046 | 51 | 273 | 2.0 | 7.0 | 0.00 | 0.04 | 0.00 | 74 | 1011.6 |
| 20260508121547 | 50 | 304 | 1.0 | 3.0 | 0.00 | 0.04 | 0.00 | 75 | 1011.5 |
| 20260508120042 | 50 | 304 | 1.0 | 4.0 | 0.00 | 0.04 | 0.00 | 74 | 1011.3 |
| 20260508114540 | 50 | 302 | 1.0 | 3.0 | 0.00 | 0.06 | 0.00 | 76 | 1011.2 |
| 20260508113103 | 49 | 303 | 0.0 | 2.0 | 0.00 | 0.06 | 0.00 | 75 | 1011.1 |
| 20260508111539 | 49 | 322 | 0.0 | 3.0 | 0.00 | 0.06 | 0.00 | 76 | 1011.0 |
| 20260508110035 | 49 | 320 | 2.0 | 5.0 | 0.00 | 0.06 | 0.00 | 76 | 1010.8 |
| 20260508104547 | 49 | 314 | 0.0 | 6.0 | 0.00 | 0.08 | 0.00 | 75 | 1010.6 |
| 20260508103030 | 49 | 338 | 1.0 | 3.0 | 0.00 | 0.08 | 0.00 | 74 | 1010.5 |
| 20260508101536 | 49 | 338 | 0.0 | 3.0 | 0.00 | 0.08 | 0.00 | 73 | 1010.4 |
| 20260508100035 | 49 | 16 | 0.0 | 5.0 | 0.00 | 0.08 | 0.00 | 73 | 1010.1 |
| 20260508094527 | 49 | 9 | 0.0 | 4.0 | 0.00 | 0.12 | 0.00 | 73 | 1010.1 |
| 20260508093027 | 49 | 11 | 1.0 | 4.0 | 0.00 | 0.12 | 0.00 | 73 | 1010.1 |
| 20260508091528 | 49 | 18 | 1.0 | 4.0 | 0.00 | 0.12 | 0.00 | 71 | 1010.1 |
| 20260508090032 | 49 | 5 | 2.0 | 5.0 | 0.00 | 0.12 | 0.00 | 70 | 1010.2 |
| 20260508084524 | 49 | 344 | 2.0 | 5.0 | 0.00 | 0.16 | 0.00 | 70 | 1010.3 |
| 20260508083025 | 49 | 322 | 2.0 | 8.0 | 0.00 | 0.16 | 0.00 | 69 | 1010.2 |
| 20260508081522 | 48 | 325 | 3.0 | 6.0 | 0.00 | 0.16 | 0.00 | 70 | 1010.2 |
| 20260508080020 | 47 | 337 | 3.0 | 12.0 | 0.00 | 0.16 | 0.00 | 74 | 1010.2 |
| 20260508074519 | 46 | 22 | 2.0 | 5.0 | 0.00 | 0.19 | 0.00 | 77 | 1010.4 |
| 20260508073016 | 44 | 302 | 1.0 | 4.0 | 0.00 | 0.19 | 0.00 | 83 | 1010.0 |
| 20260508071511 | 44 | 265 | 0.0 | 0.0 | 0.00 | 0.19 | 0.00 | 88 | 1009.2 |
| 20260508070009 | 43 | 265 | 0.0 | 0.0 | 0.00 | 0.19 | 0.00 | 88 | 1008.9 |
| 20260508064534 | 43 | 265 | 0.0 | 0.0 | 0.00 | 0.20 | 0.00 | 86 | 1008.8 |
| 20260508063010 | 44 | 265 | 0.0 | 0.0 | 0.00 | 0.20 | 0.00 | 86 | 1008.4 |
| 20260508061506 | 44 | 265 | 0.0 | 0.0 | 0.00 | 0.20 | 0.00 | 86 | 1008.7 |
| 20260508060002 | 45 | 265 | 0.0 | 0.0 | 0.00 | 0.20 | 0.00 | 86 | 1008.6 |
| 20260508054626 | 45 | 265 | 0.0 | 0.0 | 0.00 | 0.20 | 0.00 | 85 | 1008.6 |
| 20260508053115 | 46 | 265 | 0.0 | 0.0 | 0.00 | 0.20 | 0.00 | 85 | 1008.4 |
| 20260508051600 | 46 | 265 | 0.0 | 0.0 | 0.00 | 0.20 | 0.00 | 84 | 1008.6 |
| 20260508050055 | 47 | 265 | 0.0 | 0.0 | 0.00 | 0.20 | 0.00 | 84 | 1008.6 |
| 20260508044552 | 47 | 265 | 0.0 | 0.0 | 0.00 | 0.20 | 0.00 | 84 | 1008.6 |
| 20260508043055 | 47 | 265 | 0.0 | 0.0 | 0.00 | 0.20 | 0.00 | 84 | 1008.6 |
| 20260508041548 | 47 | 265 | 0.0 | 0.0 | 0.00 | 0.20 | 0.00 | 84 | 1008.8 |
| 20260508040054 | 48 | 265 | 0.0 | 0.0 | 0.00 | 0.20 | 0.00 | 83 | 1008.8 |
| 20260508034548 | 48 | 265 | 0.0 | 0.0 | 0.00 | 0.20 | 0.20 | 82 | 1008.7 |
| 20260508033042 | 49 | 265 | 0.0 | 0.0 | 0.00 | 0.20 | 0.20 | 82 | 1008.8 |
| 20260508031551 | 49 | 265 | 0.0 | 0.0 | 0.00 | 0.20 | 0.20 | 81 | 1008.7 |
| 20260508030041 | 50 | 265 | 0.0 | 0.0 | 0.00 | 0.20 | 0.20 | 81 | 1008.6 |
| 20260508024540 | 50 | 265 | 0.0 | 1.0 | 0.00 | 0.20 | 0.20 | 80 | 1008.7 |
| 20260508023040 | 51 | 265 | 0.0 | 0.0 | 0.00 | 0.20 | 0.20 | 79 | 1008.6 |
| 20260508021541 | 51 | 265 | 0.0 | 1.0 | 0.00 | 0.20 | 0.20 | 78 | 1008.6 |
| 20260508020039 | 52 | 265 | 0.0 | 3.0 | 0.00 | 0.20 | 0.20 | 78 | 1008.9 |
| 20260508014539 | 52 | 265 | 0.0 | 3.0 | 0.00 | 0.20 | 0.20 | 77 | 1008.8 |
| 20260508013041 | 53 | 265 | 0.0 | 7.0 | 0.00 | 0.20 | 0.20 | 77 | 1008.5 |
| 20260508011544 | 53 | 268 | 1.0 | 9.0 | 0.00 | 0.20 | 0.20 | 77 | 1008.5 |
| 20260508010040 | 53 | 252 | 0.0 | 3.0 | 0.00 | 0.20 | 0.20 | 78 | 1008.3 |
| 20260508004540 | 53 | 252 | 0.0 | 3.0 | 0.00 | 0.20 | 0.20 | 79 | 1008.3 |
| 20260508003036 | 54 | 251 | 1.0 | 7.0 | 0.00 | 0.20 | 0.20 | 78 | 1008.0 |
| 20260508001538 | 54 | 205 | 0.0 | 3.0 | 0.00 | 0.20 | 0.20 | 77 | 1007.8 |
| 20260508000044 | 54 | 207 | 0.0 | 3.0 | 0.00 | 0.20 | 0.20 | 76 | 1007.7 |
| 20260507234543 | 54 | 214 | 0.0 | 4.0 | 0.00 | 0.20 | 0.20 | 76 | 1007.7 |
| 20260507233036 | 55 | 228 | 0.0 | 4.0 | 0.00 | 0.20 | 0.20 | 75 | 1007.3 |
| 20260507231542 | 56 | 164 | 0.0 | 6.0 | 0.00 | 0.20 | 0.20 | 75 | 1007.0 |
| 20260507230033 | 57 | 222 | 0.0 | 4.0 | 0.00 | 0.20 | 0.20 | 72 | 1007.2 |
| 20260507224534 | 58 | 175 | 0.0 | 5.0 | 0.00 | 0.20 | 0.20 | 71 | 1007.1 |
| 20260507223033 | 58 | 169 | 0.0 | 7.0 | 0.00 | 0.20 | 0.20 | 69 | 1006.9 |
| 20260507221532 | 60 | 242 | 1.0 | 5.0 | 0.00 | 0.20 | 0.20 | 67 | 1006.9 |
| 20260507220034 | 62 | 182 | 1.0 | 6.0 | 0.00 | 0.20 | 0.20 | 61 | 1006.8 |
| 20260507214531 | 62 | 255 | 1.0 | 7.0 | 0.00 | 0.23 | 0.20 | 41 | 1006.7 |
| 20260507213038 | 63 | 278 | 3.0 | 8.0 | 0.00 | 0.23 | 0.20 | 38 | 1006.7 |
| 20260507211542 | 63 | 261 | 2.0 | 12.0 | 0.00 | 0.23 | 0.20 | 39 | 1006.6 |
| 20260507210030 | 64 | 25 | 1.0 | 10.0 | 0.00 | 0.23 | 0.20 | 36 | 1006.6 |
| 20260507204529 | 64 | 242 | 3.0 | 10.0 | 0.00 | 0.27 | 0.20 | 41 | 1006.8 |
| 20260507203029 | 64 | 257 | 3.0 | 10.0 | 0.00 | 0.27 | 0.20 | 35 | 1006.6 |
| 20260507201528 | 63 | 339 | 2.0 | 11.0 | 0.00 | 0.27 | 0.20 | 35 | 1006.7 |
| 20260507200027 | 64 | 262 | 4.0 | 11.0 | 0.00 | 0.27 | 0.20 | 37 | 1006.6 |
| 20260507194526 | 63 | 80 | 0.0 | 6.0 | 0.00 | 0.27 | 0.20 | 39 | 1006.8 |
| 20260507193024 | 63 | 253 | 1.0 | 7.0 | 0.00 | 0.27 | 0.20 | 42 | 1006.9 |
| 20260507191527 | 62 | 29 | 0.0 | 8.0 | 0.00 | 0.27 | 0.20 | 40 | 1006.8 |
| 20260507190020 | 62 | 57 | 3.0 | 11.0 | 0.00 | 0.27 | 0.20 | 43 | 1007.0 |
| 20260507184518 | 62 | 5 | 1.0 | 8.0 | 0.00 | 0.28 | 0.20 | 44 | 1007.5 |
| 20260507183019 | 62 | 38 | 1.0 | 8.0 | 0.00 | 0.28 | 0.20 | 44 | 1007.7 |
| 20260507181517 | 61 | 295 | 3.0 | 9.0 | 0.00 | 0.28 | 0.20 | 43 | 1007.9 |
| 20260507180014 | 61 | 259 | 1.0 | 10.0 | 0.00 | 0.28 | 0.20 | 46 | 1007.9 |
| 20260507174523 | 60 | 257 | 4.0 | 13.0 | 0.00 | 0.28 | 0.20 | 50 | 1008.2 |
| 20260507173016 | 60 | 298 | 2.0 | 12.0 | 0.00 | 0.28 | 0.20 | 44 | 1008.2 |
| 20260507171508 | 59 | 67 | 1.0 | 8.0 | 0.00 | 0.28 | 0.20 | 47 | 1008.3 |
| 20260507170007 | 59 | 350 | 4.0 | 11.0 | 0.00 | 0.28 | 0.20 | 48 | 1008.5 |
| 20260507164506 | 58 | 355 | 3.0 | 8.0 | 0.00 | 0.28 | 0.20 | 51 | 1008.7 |
| 20260507163004 | 58 | 333 | 3.0 | 6.0 | 0.00 | 0.28 | 0.20 | 51 | 1009.0 |
| 20260507161502 | 58 | 313 | 0.0 | 12.0 | 0.00 | 0.28 | 0.20 | 58 | 1009.0 |
| 20260507160118 | 57 | 57 | 4.0 | 13.0 | 0.00 | 0.28 | 0.20 | 61 | 1009.1 |
| 20260507154558 | 57 | 319 | 1.0 | 11.0 | 0.00 | 0.28 | 0.20 | 67 | 1009.3 |
| 20260507153056 | 56 | 327 | 2.0 | 8.0 | 0.00 | 0.28 | 0.20 | 67 | 1009.5 |
| 20260507151558 | 55 | 252 | 3.0 | 9.0 | 0.01 | 0.28 | 0.20 | 71 | 1009.7 |
| 20260507150153 | 56 | 351 | 2.0 | 7.0 | 0.01 | 0.28 | 0.20 | 72 | 1009.7 |
| 20260507144553 | 55 | 333 | 1.0 | 8.0 | 0.01 | 0.28 | 0.20 | 73 | 1009.4 |
| 20260507143058 | 55 | 44 | 3.0 | 10.0 | 0.01 | 0.28 | 0.20 | 73 | 1009.5 |
| 20260507141649 | 54 | 338 | 3.0 | 9.0 | 0.01 | 0.27 | 0.19 | 78 | 1009.6 |
| 20260507134547 | 52 | 340 | 2.0 | 13.0 | 0.01 | 0.27 | 0.19 | 83 | 1009.2 |